Weather History for Valdez Airport, AK

Change the Weather History Date:

Monday, October 8, 2012

  Actual Average Record
Temperature  
Mean Temperature 44 °F -  
Max Temperature 48 °F 46 °F 57 °F (1990)
Min Temperature 41 °F 35 °F 28 °F (2008)
Degree Days  
Heating Degree Days 20    
Moisture  
Dew Point 42 °F    
Average Humidity 93    
Maximum Humidity 100    
Minimum Humidity 82    
Precipitation  
Precipitation 0.00 in - - ()
Sea Level Pressure  
Sea Level Pressure 30.22 in    
Wind  
Wind Speed 1 mph (WSW)    
Max Wind Speed 6 mph    
Max Gust Speed -    
Visibility 5 miles    
Events      
Averages and records for this station are not official NWS values.
T = Trace of Precipitation, MM = Missing Value Source: NWS Daily Summary

Daily Weather History Graph

Daily Weather History Graph

Search for Another Location

Airport:

Trip Planner

Search our weather history database for the weather conditions in past years. The results will help you decide how hot, cold, wet, or windy it might be!

Date:

Astronomy

Oct. 08, 2012 Rise Set
Actual Time 8:10 AM AKDT 6:52 PM AKDT
Civil Twilight 7:27 AM AKDT 7:35 PM AKDT
Nautical Twilight 6:37 AM AKDT 8:25 PM AKDT
Astronomical Twilight 5:46 AM AKDT 9:16 PM AKDT
Moon No Moon Rise 4:27 PM AKDT (10/8)
Length of Visible Light 12h 07m
Length of Day
10h 41m
Last Quarter, 45% of the Moon is Illuminated
Oct 8
Last Quarter
Oct 15
New
Oct 21
First Quarter
Oct 29
Full
Nov 6
Last Quarter

Hourly Weather History & Observations

Time (AKDT) Temp. Windchill Dew Point Humidity Pressure Visibility Wind Dir Wind Speed Gust Speed Precip Events Conditions
12:16 AM 42.8 °F - 42.8 °F 100% 30.33 in 10.0 mi Calm Calm - N/A   Overcast
12:36 AM 42.8 °F - 42.8 °F 100% 30.32 in 10.0 mi Calm Calm - N/A   Overcast
12:56 AM 44.6 °F - 41.0 °F 87% 30.32 in 4.0 mi Calm Calm - N/A   Overcast
1:16 AM 42.8 °F - 42.8 °F 100% 30.32 in 1.8 mi Calm Calm - N/A   Overcast
1:36 AM 42.8 °F - 41.0 °F 93% 30.32 in 1.8 mi Calm Calm - N/A   Overcast
1:56 AM 44.6 °F - 42.8 °F 93% 30.32 in 2.0 mi Calm Calm - N/A   Overcast
2:16 AM 42.8 °F 40.1 °F 41.0 °F 93% 30.31 in 2.0 mi East 4.6 mph - N/A   Overcast
2:36 AM 42.8 °F - 41.0 °F 93% 30.31 in 2.0 mi Calm Calm - N/A   Overcast
2:56 AM 42.8 °F - 42.8 °F 100% 30.30 in 1.0 mi Calm Calm - N/A   Overcast
3:16 AM 42.8 °F - 42.8 °F 100% 30.29 in 1.5 mi Calm Calm - N/A   Overcast
3:36 AM 42.8 °F - 42.8 °F 100% 30.29 in 1.0 mi Calm Calm - N/A   Overcast
3:56 AM 42.8 °F - 42.8 °F 100% 30.29 in 1.0 mi Calm Calm - N/A   Overcast
4:16 AM 42.8 °F - 42.8 °F 100% 30.29 in 0.5 mi Calm Calm - N/A   Overcast
4:36 AM 42.8 °F - 42.8 °F 100% 30.28 in 0.5 mi Calm Calm - N/A   Overcast
4:56 AM 42.8 °F - 42.8 °F 100% 30.28 in 0.2 mi Calm Calm - N/A   Overcast
5:16 AM 42.8 °F - 42.8 °F 100% 30.27 in 0.5 mi Calm Calm - N/A   Overcast
5:36 AM 42.8 °F - 41.0 °F 93% 30.27 in 0.2 mi Calm Calm - N/A   Overcast
5:56 AM 42.8 °F - 41.0 °F 93% 30.27 in 0.2 mi Calm Calm - N/A   Overcast
6:16 AM 42.8 °F - 42.8 °F 100% 30.26 in 0.2 mi Calm Calm - N/A   Overcast
6:36 AM 42.8 °F - 42.8 °F 100% 30.26 in 0.2 mi Calm Calm - N/A   Overcast
6:56 AM 44.6 °F - 42.8 °F 93% 30.25 in 0.2 mi Calm Calm - N/A   Unknown
7:16 AM 42.8 °F 41.1 °F 42.8 °F 100% 30.25 in 0.2 mi East 3.5 mph - N/A   Unknown
7:36 AM 42.8 °F - 39.2 °F 87% 30.25 in 0.2 mi Calm Calm - N/A   Unknown
7:56 AM 42.8 °F - 41.0 °F 93% 30.24 in 0.5 mi Calm Calm - N/A   Mostly Cloudy
8:16 AM 42.8 °F - 39.2 °F 87% 30.24 in 0.5 mi Calm Calm - N/A   Mostly Cloudy
8:36 AM 42.8 °F - 41.0 °F 93% 30.24 in 0.5 mi Calm Calm - N/A   Mostly Cloudy
8:56 AM 42.8 °F - 42.8 °F 100% 30.24 in 0.2 mi Calm Calm - N/A   Unknown
9:16 AM 42.8 °F - 42.8 °F 100% 30.23 in 0.2 mi Calm Calm - N/A   Unknown
9:36 AM 42.8 °F - 42.8 °F 100% 30.23 in 0.2 mi Calm Calm - N/A   Unknown
9:56 AM 42.8 °F 41.1 °F 42.8 °F 100% 30.23 in 0.5 mi East 3.5 mph - N/A   Overcast
10:16 AM 44.6 °F - 42.8 °F 93% 30.23 in 1.0 mi Calm Calm - N/A   Overcast
10:36 AM 44.6 °F - 44.6 °F 100% 30.23 in 7.0 mi Calm Calm - N/A   Mostly Cloudy
10:56 AM 44.6 °F - 42.8 °F 93% 30.22 in 5.0 mi Calm Calm - N/A   Mostly Cloudy
11:16 AM 44.6 °F - 42.8 °F 93% 30.23 in 5.0 mi Calm Calm - N/A   Mostly Cloudy
11:36 AM 44.6 °F 42.2 °F 42.8 °F 93% 30.22 in 7.0 mi WNW 4.6 mph - N/A   Mostly Cloudy
11:56 AM 44.6 °F 43.1 °F 42.8 °F 93% 30.23 in 7.0 mi West 3.5 mph - N/A   Mostly Cloudy
12:16 PM 44.6 °F 42.2 °F 44.6 °F 100% 30.22 in 7.0 mi WSW 4.6 mph - N/A   Mostly Cloudy
12:36 PM 44.6 °F 41.4 °F 44.6 °F 100% 30.22 in 7.0 mi WSW 5.8 mph - N/A   Mostly Cloudy
12:56 PM 46.4 °F 45.2 °F 42.8 °F 87% 30.22 in 8.0 mi West 3.5 mph - N/A   Mostly Cloudy
1:16 PM 46.4 °F - 44.6 °F 93% 30.22 in 8.0 mi Calm Calm - N/A   Mostly Cloudy
1:36 PM 48.2 °F - 42.8 °F 82% 30.22 in 8.0 mi Calm Calm - N/A   Mostly Cloudy
1:56 PM 48.2 °F - 44.6 °F 87% 30.21 in 10.0 mi Calm Calm - N/A   Partly Cloudy
2:16 PM 48.2 °F - 44.6 °F 87% 30.20 in 10.0 mi WSW 3.5 mph - N/A   Partly Cloudy
2:36 PM 48.2 °F - 44.6 °F 87% 30.20 in 10.0 mi SW 5.8 mph - N/A   Partly Cloudy
2:56 PM 48.2 °F - 44.6 °F 87% 30.20 in 10.0 mi WSW 4.6 mph - N/A   Scattered Clouds
3:16 PM 48.2 °F - 44.6 °F 87% 30.19 in 10.0 mi Calm Calm - N/A   Scattered Clouds
3:36 PM 48.2 °F - 44.6 °F 87% 30.18 in 10.0 mi SW 5.8 mph - N/A   Scattered Clouds
3:56 PM 48.2 °F - 44.6 °F 87% 30.18 in 10.0 mi WSW 4.6 mph - N/A   Scattered Clouds
4:16 PM 48.2 °F - 44.6 °F 87% 30.17 in 10.0 mi WSW 3.5 mph - N/A   Scattered Clouds
4:36 PM 46.4 °F 43.5 °F 44.6 °F 93% 30.17 in 10.0 mi WSW 5.8 mph - N/A   Scattered Clouds
4:56 PM 46.4 °F 44.3 °F 44.6 °F 93% 30.16 in 10.0 mi SW 4.6 mph - N/A   Scattered Clouds
5:16 PM 46.4 °F 45.2 °F 44.6 °F 93% 30.16 in 10.0 mi SW 3.5 mph - N/A   Scattered Clouds
5:36 PM 46.4 °F 45.2 °F 42.8 °F 87% 30.16 in 10.0 mi WSW 3.5 mph - N/A   Scattered Clouds
5:56 PM 46.4 °F - 42.8 °F 87% 30.16 in 10.0 mi Calm Calm - N/A   Scattered Clouds
6:16 PM 46.4 °F - 42.8 °F 87% 30.16 in 10.0 mi Calm Calm - N/A   Scattered Clouds
6:36 PM 44.6 °F - 42.8 °F 93% 30.16 in 10.0 mi Calm Calm - N/A   Scattered Clouds
6:56 PM 42.8 °F - 39.2 °F 87% 30.15 in 10.0 mi Calm Calm - N/A   Scattered Clouds
7:16 PM 42.8 °F - 39.2 °F 87% 30.15 in 10.0 mi Calm Calm - N/A   Scattered Clouds
7:36 PM 42.8 °F - 39.2 °F 87% 30.15 in 10.0 mi Calm Calm - N/A   Scattered Clouds
7:56 PM 41.0 °F - 39.2 °F 93% 30.15 in 5.0 mi Calm Calm - N/A   Scattered Clouds
8:16 PM 41.0 °F - 37.4 °F 87% 30.15 in 5.0 mi Calm Calm - N/A   Scattered Clouds
8:36 PM 41.0 °F - 37.4 °F 87% 30.14 in 5.0 mi Calm Calm - N/A   Scattered Clouds
8:56 PM 41.0 °F - 39.2 °F 93% 30.14 in 0.2 mi Calm Calm - N/A   Overcast
9:16 PM 42.8 °F - 41.0 °F 93% 30.14 in 0.2 mi Calm Calm - N/A   Overcast
9:36 PM 42.8 °F - 41.0 °F 93% 30.14 in 0.2 mi Calm Calm - N/A   Overcast
9:56 PM 42.8 °F - 39.2 °F 87% 30.14 in 0.5 mi Calm Calm - N/A   Overcast
10:16 PM 42.8 °F - 39.2 °F 87% 30.14 in 6.0 mi Calm Calm - N/A   Overcast
10:36 PM 42.8 °F - 41.0 °F 93% 30.14 in 6.0 mi Calm Calm - N/A   Overcast
10:56 PM 42.8 °F - 39.2 °F 87% 30.14 in 10.0 mi Calm Calm - N/A   Overcast
11:16 PM 42.8 °F - 41.0 °F 93% 30.14 in 3.0 mi Calm Calm - N/A   Overcast
11:36 PM 42.8 °F - 39.2 °F 87% 30.15 in 10.0 mi Calm Calm - N/A   Overcast
11:56 PM 42.8 °F 41.1 °F 41.0 °F 93% 30.14 in 10.0 mi ENE 3.5 mph - N/A   Overcast